Location: G�ndlingen
(48.0142°N, 7.6396°E)
Time: 18:57:17
(UTC+00:00)

Cosmos 1371 Rocket - Pass Details

Date: 05 July 2020
Orbit: 753 x 790 km, 74.0° (Epoch: 11 August)

Event Time Altitude Azimuth Distance (km) Brightness Sun altitude
Rises 22:34:22 0° 335° (NNW) 3,244 8.9 -18.1°
Reaches altitude 10° 22:36:44 10° 334° (NNW) 2,319 7.7 -18.2°
Maximum altitude 22:41:59 71° 251° (WSW) 819 4.1 -18.4°
Enters shadow 22:44:17 34° 176° (S) 1,257 4.6 -18.4°
